Tracking 18794 objects as of 21-September-2017
HD Live streaming from Space Station
objects crossing your sky now

SL-16 DEB

Track SL-16 DEB now!
10-day predictions


NORAD ID: 24300
Int'l Code: 1996-051D
Perigee: 846.3 km
Apogee: 1,138.5 km
Inclination: 71.0 °
Period: 104.8 minutes
Semi major axis: 7363 km
RCS: 0.0855 m2 (small)
Launch date: September 4, 1996
Source: Commonwealth of Independent States (former USSR) (CIS)
Launch site: TYURATAM MISSILE AND SPACE COMPLEX (TTMTR)

Note: This is SATELLITE DEBRIS
aabbcc
Your satellite tracking list
Your tracking list is empty





NASA's NSSDC Master Catalog

Two Line Element Set (TLE):
1 24300U 96051D   17263.98186517 -.00000010  00000-0  31193-4 0  9997
2 24300  71.0287 247.3732 0198384 314.7490 105.1504 13.73999459 55213
Source of the keplerian elements: AFSPC